TimeMDT,TemperatureF,Dew PointF,Humidity,Sea Level PressureIn,VisibilityMPH,Wind Direction,Wind SpeedMPH,Gust SpeedMPH,PrecipitationIn,Events,Conditions,WindDirDegrees,DateUTC
12:53 AM,48.9,24.1,38,29.91,10.0,Calm,Calm,-,N/A,,Clear,0,2012-10-03 06:53:00
1:53 AM,48.0,24.1,39,29.91,10.0,Calm,Calm,-,N/A,,Clear,0,2012-10-03 07:53:00
2:53 AM,46.0,24.1,42,29.91,10.0,SSW,3.5,-,N/A,,Clear,210,2012-10-03 08:53:00
4:53 AM,43.0,24.1,47,29.93,10.0,South,3.5,-,N/A,,Clear,190,2012-10-03 10:53:00
5:53 AM,43.0,25.0,49,29.94,10.0,Calm,Calm,-,N/A,,Clear,0,2012-10-03 11:53:00
6:53 AM,41.0,24.1,51,29.96,10.0,Calm,Calm,-,N/A,,Clear,0,2012-10-03 12:53:00
7:53 AM,41.0,25.0,53,29.98,10.0,Calm,Calm,-,N/A,,Clear,0,2012-10-03 13:53:00
9:53 AM,53.1,28.0,38,29.98,10.0,Calm,Calm,-,N/A,,Clear,0,2012-10-03 15:53:00
10:53 AM,62.1,28.0,28,29.95,10.0,ENE,3.5,-,N/A,,Clear,60,2012-10-03 16:53:00
11:53 AM,66.9,30.0,25,29.91,10.0,Variable,3.5,-,N/A,,Clear,0,2012-10-03 17:53:00
12:53 PM,73.9,28.0,18,29.86,10.0,Variable,3.5,-,N/A,,Partly Cloudy,0,2012-10-03 18:53:00
1:53 PM,81.0,23.0,12,29.80,10.0,West,25.3,36.8,N/A,,Clear,270,2012-10-03 19:53:00
2:53 PM,81.0,21.9,11,29.79,10.0,WSW,18.4,36.8,N/A,,Clear,240,2012-10-03 20:53:00
3:53 PM,81.0,21.9,11,29.80,10.0,WSW,24.2,29.9,N/A,,Clear,250,2012-10-03 21:53:00
4:53 PM,80.1,21.0,11,29.81,10.0,WSW,20.7,34.5,N/A,,Clear,240,2012-10-03 22:53:00
5:34 PM,75.2,23.0,14,30.00,10.0,WNW,9.2,31.1,N/A,,Mostly Cloudy,290,2012-10-03 23:34:00
5:53 PM,75.9,21.9,13,29.84,10.0,WSW,9.2,-,N/A,,Partly Cloudy,240,2012-10-03 23:53:00
7:53 PM,71.1,19.9,14,29.91,10.0,West,6.9,17.3,N/A,,Clear,260,2012-10-04 01:53:00
8:53 PM,71.1,16.0,12,29.92,10.0,West,8.1,-,N/A,,Clear,270,2012-10-04 02:53:00
9:53 PM,69.1,17.1,14,29.92,10.0,NW,18.4,25.3,N/A,,Clear,310,2012-10-04 03:53:00
10:53 PM,63.0,12.9,14,29.95,10.0,NW,12.7,24.2,N/A,,Clear,320,2012-10-04 04:53:00
11:53 PM,57.0,19.9,24,29.99,10.0,WNW,12.7,-,N/A,,Clear,290,2012-10-04 05:53:00